Imperial, NE

12:48 PM MDT on May 20, 2018 (GMT -0600)
Imperial Municipal

Weather History for KIML - April, 2014

Change the Weather History Date:

Saturday, April 12, 2014

  Actual Average Record
Temperature  
Mean Temperature 62 °F 47 °F  
Max Temperature 78 °F 61 °F 88 °F (1899)
Min Temperature 46 °F 33 °F 8 °F (1997)
Degree Days  
Heating Degree Days 3 18  
Month to date heating degree days 199 233  
Cooling Degree Days 0 0  
Month to date cooling degree days 0 0  
Year to date cooling degree days 0 0  
Growing Degree Days 12 (Base 50)    
Moisture  
Dew Point 32 °F    
Average Humidity 38    
Maximum Humidity 58    
Minimum Humidity 18    
Precipitation  
Precipitation 0.00 in 0.07 in 1.05 in (2001)
Sea Level Pressure  
Sea Level Pressure 29.60 in    
Wind  
Wind Speed 14 mph (NNE)    
Max Wind Speed 25 mph    
Max Gust Speed 31 mph    
Visibility 10 miles    
Events      
T = Trace of Precipitation, MM = Missing Value Source: NWS Daily Summary

Daily Weather History Graph

Daily Weather History Graph

Search for Another Location

Airport or City:

Astronomy

Apr. 12, 2014 Rise Set
Actual Time 6:12 AM MDT 7:22 PM MDT
Civil Twilight 5:44 AM MDT 7:50 PM MDT
Nautical Twilight 5:10 AM MDT 8:24 PM MDT
Astronomical Twilight 4:35 AM MDT 8:59 PM MDT
Moon 5:02 PM MDT (4/12) 4:41 AM MDT (4/12)
Length of Visible Light 14h 06m
Length of Day
13h 10m
Waxing Gibbous, 93% of the Moon is Illuminated
Apr 12
Waxing Gibbous
Apr 15
Full
Apr 22
Last Quarter
Apr 29
New
May 6
First Quarter

Hourly Weather History & Observations

Time (MDT) Temp. Dew Point Humidity Pressure Visibility Wind Dir Wind Speed Gust Speed Precip Events Conditions
12:53 AM 57.0 °F 36.0 °F 45% 29.66 in 10.0 mi South 12.7 mph - N/A   Clear
1:53 AM 53.1 °F 36.0 °F 52% 29.63 in 10.0 mi South 8.1 mph - N/A   Clear
2:53 AM 50.0 °F 35.1 °F 57% 29.60 in 10.0 mi South 6.9 mph - N/A   Clear
3:53 AM 51.1 °F 36.0 °F 56% 29.61 in 10.0 mi WNW 8.1 mph - N/A   Clear
4:53 AM 46.9 °F 32.0 °F 56% 29.61 in 10.0 mi WNW 8.1 mph - N/A   Clear
5:53 AM 48.9 °F 30.0 °F 48% 29.60 in 10.0 mi NW 16.1 mph - N/A   Clear
6:53 AM 48.9 °F 30.0 °F 48% 29.61 in 10.0 mi NW 13.8 mph - N/A   Clear
7:53 AM 54.0 °F 30.9 °F 41% 29.62 in 10.0 mi NW 16.1 mph - N/A   Clear
8:53 AM 61.0 °F 32.0 °F 34% 29.62 in 10.0 mi NNW 15.0 mph - N/A   Clear
9:53 AM 69.1 °F 32.0 °F 25% 29.63 in 10.0 mi North 12.7 mph - N/A   Clear
10:53 AM 72.0 °F 32.0 °F 23% 29.62 in 10.0 mi NNE 13.8 mph - N/A   Clear
11:53 AM 73.0 °F 32.0 °F 22% 29.61 in 10.0 mi ENE 8.1 mph - N/A   Clear
12:53 PM 75.9 °F 32.0 °F 20% 29.58 in 10.0 mi NNE 9.2 mph - N/A   Clear
1:53 PM 75.9 °F 32.0 °F 20% 29.57 in 10.0 mi NNE 12.7 mph 19.6 mph N/A   Clear
2:53 PM 77.0 °F 30.9 °F 19% 29.56 in 10.0 mi NE 12.7 mph 21.9 mph N/A   Clear
3:53 PM 75.9 °F 30.9 °F 19% 29.55 in 10.0 mi East 12.7 mph - N/A   Clear
4:53 PM 75.0 °F 30.9 °F 20% 29.57 in 10.0 mi ENE 12.7 mph - N/A   Clear
5:53 PM 71.1 °F 32.0 °F 24% 29.59 in 10.0 mi ENE 16.1 mph - N/A   Clear
6:53 PM 66.0 °F 30.9 °F 27% 29.62 in 10.0 mi NE 10.4 mph - N/A   Scattered Clouds
7:53 PM 64.0 °F 28.9 °F 27% 29.59 in 10.0 mi NE 17.3 mph - N/A   Clear
8:53 PM 63.0 °F 28.9 °F 28% 29.60 in 10.0 mi ENE 17.3 mph 25.3 mph N/A   Scattered Clouds
9:53 PM 60.1 °F 30.0 °F 32% 29.60 in 10.0 mi NE 17.3 mph - N/A   Clear
10:53 PM 55.9 °F 30.9 °F 39% 29.62 in 10.0 mi NE 19.6 mph 27.6 mph N/A   Clear
11:53 PM 53.1 °F 30.0 °F 41% 29.63 in 10.0 mi NE 18.4 mph - N/A   Clear